KG7EW Weather Reports


time (UTC)temp
C
wind
direction
speed
KPH
gust
KPH
rain 1hr
cm
rain 24hr
cm
rain mn
cm
humidity
%
barometer
mb
20260906234003 26 226 0.0 9.7 0.00 0.00 0.00 31 1000.2
20260906233003 26 220 3.2 16.1 0.00 0.00 0.00 27 1000.2
20260906232002 26 254 0.0 12.9 0.00 0.00 0.00 29 1000.2
20260906231002 26 223 1.6 20.9 0.00 0.00 0.00 27 1000.7
20260906230002 26 242 4.8 25.7 0.00 0.00 0.00 27 1000.7
20260906224002 27 237 4.8 25.7 0.00 0.00 0.00 26 1001.1
20260906223003 27 150 1.6 25.7 0.00 0.00 0.00 25 1001.1
20260906222003 27 207 4.8 17.7 0.00 0.00 0.00 26 1000.8
20260906221002 27 279 8.0 19.3 0.00 0.00 0.00 23 1000.9
20260906220003 27 217 4.8 17.7 0.00 0.00 0.00 24 1000.9
20260906215003 28 275 4.8 35.4 0.00 0.00 0.00 24 1000.5
20260906214003 28 231 1.6 38.6 0.00 0.00 0.00 28 1000.8
20260906213024 28 236 6.4 29.0 0.00 0.00 0.00 26 1000.8
20260906212003 28 234 1.6 17.7 0.00 0.00 0.00 28 1000.8
20260906211004 28 228 9.7 27.4 0.00 0.00 0.00 25 1000.9
20260906210004 28 46 4.8 14.5 0.00 0.00 0.00 24 1000.9
20260906205003 28 81 0.0 11.3 0.00 0.00 0.00 27 1001.0
20260906204003 28 93 1.6 12.9 0.00 0.00 0.00 25 1001.3
20260906203003 27 225 1.6 8.0 0.00 0.00 0.00 26 1001.3
20260906202003 27 215 0.0 22.5 0.00 0.00 0.00 26 1001.9
20260906201002 27 242 16.1 32.2 0.00 0.00 0.00 24 1001.6
20260906200003 27 17 0.0 17.7 0.00 0.00 0.00 27 1001.6
20260906195004 28 238 4.8 22.5 0.00 0.00 0.00 26 1002.1
20260906194003 28 221 6.4 17.7 0.00 0.00 0.00 26 1002.1
20260906193002 28 224 3.2 11.3 0.00 0.00 0.00 26 1002.1
20260906192003 28 143 0.0 8.0 0.00 0.00 0.00 27 1001.9
20260906191003 28 238 0.0 19.3 0.00 0.00 0.00 24 1002.0
20260906190003 28 244 9.7 22.5 0.00 0.00 0.00 25 1002.0
20260906185002 28 225 4.8 30.6 0.00 0.00 0.00 24 1002.4
20260906184003 27 223 0.0 9.7 0.00 0.00 0.00 24 1002.5
20260906183003 27 234 12.9 38.6 0.00 0.00 0.00 23 1002.5
20260906182002 27 228 3.2 30.6 0.00 0.00 0.00 23 1002.8
20260906181003 27 225 12.9 29.0 0.00 0.00 0.00 22 1003.2
20260906180003 27 243 4.8 19.3 0.00 0.00 0.00 24 1003.2
20260906175003 27 206 4.8 25.7 0.00 0.00 0.00 21 1003.4
20260906174002 27 202 3.2 22.5 0.00 0.00 0.00 21 1003.8
20260906173003 27 224 1.6 33.8 0.00 0.00 0.00 21 1003.8
20260906172003 27 208 0.0 14.5 0.00 0.00 0.00 22 1003.7
20260906171002 27 233 0.0 22.5 0.00 0.00 0.00 24 1003.8
20260906170003 26 243 3.2 20.9 0.00 0.00 0.00 24 1003.8
20260906165004 26 179 1.6 25.7 0.00 0.00 0.00 24 1003.9
20260906164003 26 199 3.2 29.0 0.00 0.00 0.00 22 1003.9
20260906163002 25 174 1.6 11.3 0.00 0.00 0.00 25 1003.9
20260906162003 24 359 0.0 6.4 0.00 0.00 0.00 38 1004.4
20260906161024 23 39 1.6 4.8 0.00 0.00 0.00 43 1004.1
20260906160024 22 58 0.0 4.8 0.00 0.00 0.00 43 1004.1
20260906155003 22 67 0.0 17.7 0.00 0.00 0.00 47 1004.5
20260906154024 21 54 0.0 0.0 0.00 0.00 0.00 43 1005.0
20260906153003 21 54 0.0 1.6 0.00 0.00 0.00 40 1005.0
20260906152004 20 54 0.0 3.2 0.00 0.00 0.00 40 1005.4
20260906151003 19 57 0.0 1.6 0.00 0.00 0.00 43 1005.3
20260906150002 18 57 0.0 0.0 0.00 0.00 0.00 47 1005.3
20260906145003 17 52 0.0 0.0 0.00 0.00 0.00 48 1005.7
20260906144002 16 57 0.0 0.0 0.00 0.00 0.00 51 1006.1
20260906142002 13 91 0.0 0.0 0.00 0.00 0.00 62 1006.5
20260906141004 13 244 0.0 0.0 0.00 0.00 0.00 62 1005.9
20260906140002 12 240 0.0 0.0 0.00 0.00 0.00 62 1005.9
20260906135003 11 242 0.0 0.0 0.00 0.00 0.00 63 1006.0
20260906134002 11 242 0.0 0.0 0.00 0.00 0.00 62 1005.9
20260906133003 11 242 0.0 0.0 0.00 0.00 0.00 60 1005.9
20260906132003 11 242 0.0 0.0 0.00 0.00 0.00 60 1005.7
20260906131002 11 244 0.0 0.0 0.00 0.00 0.00 61 1004.2
20260906130025 11 243 0.0 0.0 0.00 0.00 0.00 60 1004.2
20260906125024 11 243 0.0 0.0 0.00 0.00 0.00 59 1003.9
20260906124024 11 242 0.0 0.0 0.00 0.00 0.00 59 1003.9
20260906123024 11 242 0.0 0.0 0.00 0.00 0.00 57 1003.9
20260906122003 12 242 0.0 0.0 0.00 0.00 0.00 56 1003.8
20260906121002 12 243 0.0 0.0 0.00 0.00 0.00 55 1003.0
20260906120003 12 243 0.0 0.0 0.00 0.00 0.00 55 1003.0
20260906115003 12 243 0.0 0.0 0.00 0.00 0.00 55 1002.9
20260906114003 12 242 0.0 0.0 0.00 0.00 0.00 55 1002.8
20260906113025 12 242 0.0 0.0 0.00 0.00 0.00 55 1002.8
20260906112024 11 242 0.0 0.0 0.00 0.00 0.00 55 1003.1
20260906111003 11 242 0.0 0.0 0.00 0.00 0.00 55 1003.4
20260906110003 11 243 0.0 0.0 0.00 0.00 0.00 57 1003.4
20260906105003 11 242 0.0 0.0 0.00 0.00 0.00 59 1003.3
20260906104003 11 243 0.0 0.0 0.00 0.00 0.00 59 1003.2
20260906103002 11 243 0.0 0.0 0.00 0.00 0.00 59 1003.2
20260906102002 11 242 0.0 0.0 0.00 0.00 0.00 59 1002.9
20260906101003 11 242 0.0 0.0 0.00 0.00 0.00 58 1002.8
20260906100003 11 243 0.0 0.0 0.00 0.00 0.00 58 1002.8
20260906095002 11 243 0.0 0.0 0.00 0.00 0.00 59 1002.7
20260906093003 11 243 0.0 0.0 0.00 0.00 0.00 58 1002.6
20260906092004 11 242 0.0 0.0 0.00 0.00 0.00 57 1002.4
20260906091002 11 240 0.0 0.0 0.00 0.00 0.00 56 1002.3
20260906090003 11 239 0.0 0.0 0.00 0.00 0.00 56 1002.3
20260906085002 12 239 0.0 0.0 0.00 0.00 0.00 56 1002.3
20260906084003 12 239 0.0 0.0 0.00 0.00 0.00 55 1002.4
20260906083003 12 240 0.0 0.0 0.00 0.00 0.00 56 1002.4
20260906082002 12 239 0.0 0.0 0.00 0.00 0.00 55 1002.3
20260906081003 12 240 0.0 0.0 0.00 0.00 0.00 56 1002.4
20260906080024 12 240 0.0 0.0 0.00 0.00 0.00 56 1002.4
20260906075003 12 239 0.0 0.0 0.00 0.00 0.00 55 1002.5
20260906074002 12 237 0.0 0.0 0.00 0.00 0.00 56 1002.4
20260906073003 12 239 0.0 0.0 0.00 0.00 0.00 55 1002.4
20260906072024 12 239 0.0 0.0 0.00 0.00 0.00 54 1002.3
20260906071003 12 239 0.0 0.0 0.00 0.00 0.00 55 1002.2
20260906070002 13 237 0.0 0.0 0.00 0.00 0.00 54 1002.2
20260906065024 13 237 0.0 0.0 0.00 0.00 0.00 54 1002.2
20260906064002 13 239 0.0 0.0 0.00 0.00 0.00 54 1001.9
20260906063004 13 239 0.0 0.0 0.00 0.00 0.00 54 1001.9
20260906062024 13 237 0.0 0.0 0.00 0.00 0.00 53 1001.8
20260906061003 13 237 0.0 0.0 0.00 0.00 0.00 53 1002.4
20260906060003 13 239 0.0 4.8 0.00 0.00 0.00 52 1002.4
20260906055003 13 237 0.0 0.0 0.00 0.00 0.00 52 1002.4
20260906054003 13 237 1.6 9.7 0.00 0.00 0.00 52 1002.1
20260906053003 14 335 0.0 0.0 0.00 0.00 0.00 52 1002.1
20260906052003 14 218 0.0 0.0 0.00 0.00 0.00 51 1002.0
20260906051003 14 218 0.0 0.0 0.00 0.00 0.00 51 1002.1
20260906050004 14 218 0.0 0.0 0.00 0.00 0.00 51 1002.1
20260906045002 14 218 0.0 0.0 0.00 0.00 0.00 51 1002.1
20260906044003 15 218 0.0 0.0 0.00 0.00 0.00 50 1001.8
20260906043002 15 216 0.0 0.0 0.00 0.00 0.00 49 1001.8
20260906042003 15 216 0.0 0.0 0.00 0.00 0.00 48 1001.8
20260906041003 16 216 0.0 0.0 0.00 0.00 0.00 45 1002.4
20260906040003 16 218 0.0 0.0 0.00 0.00 0.00 44 1002.4
20260906035003 16 216 0.0 0.0 0.00 0.00 0.00 44 1002.2
20260906034003 16 216 0.0 0.0 0.00 0.00 0.00 43 1001.7
20260906033025 17 216 0.0 0.0 0.00 0.00 0.00 42 1001.7
20260906032003 17 211 0.0 0.0 0.00 0.00 0.00 41 1001.6
20260906031002 17 211 0.0 0.0 0.00 0.00 0.00 38 1002.4
20260906030004 17 212 0.0 0.0 0.00 0.00 0.00 38 1002.4
20260906025003 17 212 0.0 0.0 0.00 0.00 0.00 38 1002.4
20260906024003 18 180 0.0 0.0 0.00 0.00 0.00 40 1001.9
20260906023003 18 89 0.0 0.0 0.00 0.00 0.00 40 1001.9
20260906022003 18 91 0.0 0.0 0.00 0.00 0.00 37 1001.9
20260906021003 20 65 0.0 0.0 0.00 0.00 0.00 38 1002.4
20260906020024 21 229 0.0 0.0 0.00 0.00 0.00 33 1002.4
20260906015003 21 228 0.0 0.0 0.00 0.00 0.00 32 1002.3
20260906014025 22 226 0.0 0.0 0.00 0.00 0.00 30 1002.1
20260906012002 24 225 0.0 1.6 0.00 0.00 0.00 28 1001.4
20260906011003 26 225 0.0 4.8 0.00 0.00 0.00 27 1001.4
20260906010002 27 244 0.0 0.0 0.00 0.00 0.00 26 1001.4
20260906005003 28 244 0.0 11.3 0.00 0.00 0.00 22 1001.1
20260906004004 29 215 0.0 1.6 0.00 0.00 0.00 21 1000.7
20260906003002 30 218 0.0 19.3 0.00 0.00 0.00 15 1000.7
20260906002003 30 233 3.2 9.7 0.00 0.00 0.00 17 1000.7
20260906001003 30 228 4.8 11.3 0.00 0.00 0.00 16 1000.4
20260906000003 30 227 0.0 12.9 0.00 0.00 0.00 18 1000.4
20260905235003 30 221 0.0 4.8 0.00 0.00 0.00 20 1000.5